Home   Weather   Lakewood   Past weeks

Flag for USA Past Weather in Lakewood, New Jersey, USA — Yesterday and Last 2 Weeks

Now
62 °F

Light rain. Fog.


Feels Like: 62 °F
Forecast: 59 / 64 °F
Wind: 25 mph from East

Location: Lakehurst Naval Air Station

Current Time: Sep 30, 2016 at 4:21:05 AM

Latest Report: Sep 30, 2016 at 4:00 AM


Visibility: 6 mi

Pressure: 30.20 "Hg

Humidity: 90%

Dew Point: 59 °F

Location of LakewoodLocation

Past Weather in Lakewood — Graph

°F

Lakewood Temperature Yesterday

Maximum temperature yesterday: 63 °F (at 4:00 AM)
Minimum temperature yesterday: 61 °F (at 12:00 AM)
Average temperature yesterday: 62 °F

High & Low Weather Summary for the Past Weeks

 TemperatureHumidityPressure
High88 °F (Sep 18, 3:00 PM)100% (Sep 17, 1:00 AM)30.32 "Hg (Sep 17, 1:00 AM)
Low41 °F (Sep 26, 5:00 AM)26% (Sep 22, 4:00 PM)29.87 "Hg (Sep 27, 4:00 PM)
Average66 °F81%30.11 "Hg
* Reported Sep 15 3:00 AM — Sep 30 3:00 AM, Lakewood, Weather by CustomWeather, © 2016

Note: Actual official high and low records may vary slightly from our data, if they occured in-between our weather recording intervals... More about our weather records

Advertising

Lakewood Weather History for the Previous 24 Hours

Scroll right to see more
 ConditionsComfort  
Time TempWeatherWind HumidityBarometerVisibility
3:00 AM
Fri, Sep 30
62 °FFog.20 mph86%30.22 "Hg5 mi
2:00 AM62 °FOvercast.22 mph86%30.24 "Hg8 mi
1:00 AM62 °FOvercast.21 mph86%30.25 "Hg10 mi
12:00 AM61 °FFog.23 mph93%30.26 "Hg6 mi
11:00 PM
Thu, Sep 29
62 °FLight rain. Overcast.21 mph90%30.29 "Hg7 mi
10:00 PM61 °FFog.21 mph93%30.29 "Hg6 mi
9:00 PM61 °FOvercast.18 mph93%30.29 "Hg7 mi
8:00 PM61 °FLight rain. Overcast.17 mph93%30.29 "Hg7 mi
7:00 PM62 °FLight rain. Overcast.21 mph86%30.29 "Hg8 mi
6:00 PM61 °FLight rain. Fog.20 mph93%30.29 "Hg6 mi
5:00 PM61 °FFog.17 mph97%30.29 "Hg6 mi
4:00 PM61 °FLight rain. Fog.18 mph97%30.28 "Hg3 mi
3:00 PM62 °FLight rain. Fog.17 mph93%30.29 "Hg4 mi
2:06 PM62 °FLight rain. Fog.20 mph93%30.30 "Hg2 mi
1:00 PM63 °FLight rain. Fog.15 mph94%30.32 "Hg2 mi
12:06 PM62 °FFog.16 mph96%30.30 "Hg2 mi
11:06 AM63 °FLight rain. Fog.18 mph93%30.30 "Hg2 mi
10:08 AM63 °FFog.18 mph93%30.28 "Hg2 mi
10:00 AM63 °FLight rain. Fog.21 mph94%30.28 "Hg2 mi
9:06 AM63 °FLight rain. Fog.16 mph97%30.27 "Hg1 mi
9:00 AM63 °FLight rain. Fog.16 mph100%30.27 "Hg2 mi
8:00 AM63 °FLight rain. Fog.16 mph97%30.23 "Hg1 mi
7:00 AM63 °FLight rain. Fog.21 mph97%30.22 "Hg2 mi
6:26 AM63 °FLight rain. Fog.20 mph97%30.23 "Hg2 mi
6:00 AM63 °FLight rain. Fog.22 mph100%30.23 "Hg2 mi
5:00 AM63 °FLight rain. Fog.17 mph100%30.22 "Hg1 mi
4:00 AM63 °FLight rain. Fog.16 mph100%30.21 "Hg1 mi
Weather by CustomWeather, © 2016

See weather overviewHow to use our weather pages